| time (UTC) | temp F | wind direction | speed MPH | gust MPH | rain 1hr in | rain 24hr in | rain mn in | humidity % | barometer mb |
| 20260902083033 | 63 | 350 | 5.0 | 9.0 | 0.00 | 0.00 | 0.00 | 46 | 1010.5 |
| 20260902081540 | 63 | 53 | 6.0 | 10.0 | 0.00 | 0.00 | 0.00 | 47 | 1010.3 |
| 20260902080030 | 65 | 355 | 6.0 | 9.0 | 0.00 | 0.00 | 0.00 | 43 | 1010.3 |
| 20260902074539 | 70 | 146 | 8.0 | 13.0 | 0.00 | 0.00 | 0.00 | 39 | 1010.4 |
| 20260902073027 | 71 | 140 | 10.0 | 14.0 | 0.00 | 0.00 | 0.00 | 38 | 1010.5 |
| 20260902071525 | 71 | 138 | 11.0 | 18.0 | 0.00 | 0.00 | 0.00 | 36 | 1010.7 |
| 20260902070023 | 67 | 178 | 4.0 | 8.0 | 0.00 | 0.00 | 0.00 | 38 | 1010.7 |
| 20260902064530 | 69 | 202 | 7.0 | 16.0 | 0.00 | 0.00 | 0.00 | 37 | 1010.8 |
| 20260902063022 | 69 | 162 | 7.0 | 18.0 | 0.00 | 0.00 | 0.00 | 37 | 1010.9 |
| 20260902061534 | 68 | 153 | 10.0 | 14.0 | 0.00 | 0.00 | 0.00 | 37 | 1011.0 |
| 20260902060018 | 69 | 140 | 13.0 | 18.0 | 0.00 | 0.00 | 0.00 | 34 | 1011.2 |
| 20260902054525 | 70 | 122 | 15.0 | 22.0 | 0.00 | 0.00 | 0.00 | 34 | 1011.2 |
| 20260902053015 | 70 | 136 | 15.0 | 25.0 | 0.00 | 0.00 | 0.00 | 34 | 1011.2 |
| 20260902051509 | 70 | 132 | 16.0 | 25.0 | 0.00 | 0.00 | 0.00 | 35 | 1011.3 |
| 20260902050009 | 70 | 134 | 13.0 | 23.0 | 0.00 | 0.00 | 0.00 | 37 | 1011.4 |
| 20260902044508 | 70 | 126 | 14.0 | 19.0 | 0.00 | 0.00 | 0.00 | 38 | 1011.4 |
| 20260902043009 | 70 | 119 | 15.0 | 21.0 | 0.00 | 0.00 | 0.00 | 37 | 1011.4 |
| 20260902041510 | 71 | 128 | 16.0 | 20.0 | 0.00 | 0.00 | 0.00 | 36 | 1011.4 |
| 20260902040007 | 70 | 128 | 12.0 | 18.0 | 0.00 | 0.00 | 0.00 | 35 | 1011.5 |
| 20260902034515 | 70 | 127 | 10.0 | 15.0 | 0.00 | 0.00 | 0.00 | 33 | 1011.5 |
| 20260902033006 | 70 | 134 | 11.0 | 14.0 | 0.00 | 0.00 | 0.00 | 33 | 1011.6 |
| 20260902031505 | 70 | 131 | 10.0 | 16.0 | 0.00 | 0.00 | 0.00 | 32 | 1011.8 |
| 20260902030004 | 71 | 127 | 10.0 | 15.0 | 0.00 | 0.00 | 0.00 | 31 | 1011.7 |
| 20260902024613 | 69 | 148 | 10.0 | 14.0 | 0.00 | 0.00 | 0.00 | 35 | 1011.6 |
| 20260902023001 | 71 | 146 | 8.0 | 13.0 | 0.00 | 0.00 | 0.00 | 33 | 1011.6 |
| 20260902021501 | 72 | 134 | 11.0 | 16.0 | 0.00 | 0.00 | 0.00 | 31 | 1011.6 |
| 20260902020004 | 71 | 140 | 10.0 | 13.0 | 0.00 | 0.00 | 0.00 | 34 | 1011.7 |
| 20260902014600 | 71 | 126 | 8.0 | 10.0 | 0.00 | 0.00 | 0.00 | 36 | 1011.7 |
| 20260902013058 | 73 | 123 | 8.0 | 12.0 | 0.00 | 0.00 | 0.00 | 33 | 1011.5 |
| 20260902011558 | 75 | 124 | 4.0 | 9.0 | 0.00 | 0.00 | 0.00 | 33 | 1011.6 |
| 20260902010059 | 76 | 133 | 3.0 | 9.0 | 0.00 | 0.00 | 0.00 | 29 | 1011.7 |
| 20260902004557 | 77 | 135 | 8.0 | 14.0 | 0.00 | 0.00 | 0.00 | 27 | 1011.6 |
| 20260902003056 | 77 | 114 | 11.0 | 15.0 | 0.00 | 0.00 | 0.00 | 26 | 1011.7 |
| 20260902001601 | 77 | 130 | 12.0 | 16.0 | 0.00 | 0.00 | 0.00 | 26 | 1011.7 |
| 20260902000055 | 78 | 140 | 11.0 | 16.0 | 0.00 | 0.00 | 0.00 | 26 | 1011.8 |
| 20260901234609 | 78 | 136 | 13.0 | 18.0 | 0.00 | 0.00 | 0.00 | 27 | 1011.7 |
| 20260901233101 | 79 | 119 | 14.0 | 20.0 | 0.00 | 0.00 | 0.00 | 26 | 1011.7 |
| 20260901231552 | 79 | 111 | 10.0 | 16.0 | 0.00 | 0.00 | 0.00 | 25 | 1011.9 |
| 20260901230050 | 79 | 133 | 12.0 | 18.0 | 0.00 | 0.00 | 0.00 | 25 | 1012.1 |
| 20260901224549 | 79 | 113 | 11.0 | 16.0 | 0.00 | 0.00 | 0.00 | 26 | 1012.3 |
| 20260901223049 | 80 | 132 | 10.0 | 15.0 | 0.00 | 0.00 | 0.00 | 25 | 1012.4 |
| 20260901221544 | 79 | 150 | 8.0 | 16.0 | 0.00 | 0.00 | 0.00 | 25 | 1012.6 |
| 20260901220107 | 79 | 134 | 10.0 | 15.0 | 0.00 | 0.00 | 0.00 | 26 | 1012.7 |
| 20260901214542 | 78 | 172 | 6.0 | 12.0 | 0.00 | 0.00 | 0.00 | 28 | 1012.8 |
| 20260901213041 | 78 | 154 | 10.0 | 18.0 | 0.00 | 0.00 | 0.00 | 27 | 1013.1 |
| 20260901211541 | 79 | 130 | 13.0 | 19.0 | 0.00 | 0.00 | 0.00 | 28 | 1013.1 |
| 20260901210044 | 78 | 130 | 11.0 | 21.0 | 0.00 | 0.00 | 0.00 | 27 | 1013.3 |
| 20260901204535 | 77 | 141 | 15.0 | 23.0 | 0.00 | 0.00 | 0.00 | 27 | 1013.3 |
| 20260901203038 | 78 | 119 | 14.0 | 19.0 | 0.00 | 0.00 | 0.00 | 29 | 1013.4 |
| 20260901201535 | 78 | 94 | 12.0 | 17.0 | 0.00 | 0.00 | 0.00 | 29 | 1013.4 |
| 20260901200030 | 75 | 142 | 15.0 | 22.0 | 0.00 | 0.00 | 0.00 | 31 | 1013.5 |
| 20260901194532 | 77 | 107 | 16.0 | 22.0 | 0.00 | 0.00 | 0.00 | 30 | 1013.8 |
| 20260901193029 | 76 | 107 | 18.0 | 23.0 | 0.00 | 0.00 | 0.00 | 30 | 1013.8 |
| 20260901191527 | 76 | 114 | 15.0 | 21.0 | 0.00 | 0.00 | 0.00 | 30 | 1013.9 |
| 20260901190025 | 78 | 138 | 15.0 | 20.0 | 0.00 | 0.00 | 0.00 | 29 | 1014.0 |
| 20260901184523 | 75 | 120 | 13.0 | 19.0 | 0.00 | 0.00 | 0.00 | 31 | 1014.0 |
| 20260901183024 | 75 | 121 | 14.0 | 19.0 | 0.00 | 0.00 | 0.00 | 31 | 1014.2 |
| 20260901181532 | 76 | 110 | 13.0 | 18.0 | 0.00 | 0.00 | 0.00 | 30 | 1014.1 |
| 20260901180019 | 77 | 309 | 6.0 | 11.0 | 0.00 | 0.00 | 0.00 | 31 | 1014.2 |
| 20260901174516 | 75 | 301 | 6.0 | 13.0 | 0.00 | 0.00 | 0.00 | 32 | 1014.3 |
| 20260901173015 | 76 | 298 | 8.0 | 12.0 | 0.00 | 0.00 | 0.00 | 32 | 1014.3 |
| 20260901171515 | 74 | 339 | 2.0 | 9.0 | 0.00 | 0.00 | 0.00 | 35 | 1014.4 |
| 20260901170022 | 72 | 284 | 6.0 | 10.0 | 0.00 | 0.00 | 0.00 | 37 | 1014.6 |
| 20260901164511 | 72 | 302 | 5.0 | 11.0 | 0.00 | 0.00 | 0.00 | 38 | 1014.6 |
| 20260901163010 | 73 | 183 | 0.0 | 4.0 | 0.00 | 0.00 | 0.00 | 34 | 1014.5 |
| 20260901161502 | 71 | 92 | 1.0 | 8.0 | 0.00 | 0.00 | 0.00 | 37 | 1014.5 |
| 20260901160004 | 71 | 94 | 2.0 | 7.0 | 0.00 | 0.00 | 0.00 | 38 | 1014.6 |
| 20260901154609 | 69 | 113 | 2.0 | 6.0 | 0.00 | 0.00 | 0.00 | 40 | 1014.6 |
| 20260901153058 | 68 | 181 | 1.0 | 11.0 | 0.00 | 0.00 | 0.00 | 42 | 1014.7 |
| 20260901151557 | 66 | 126 | 8.0 | 16.0 | 0.00 | 0.00 | 0.00 | 44 | 1014.7 |
| 20260901150105 | 66 | 99 | 8.0 | 14.0 | 0.00 | 0.00 | 0.00 | 43 | 1014.9 |
| 20260901144552 | 65 | 93 | 10.0 | 17.0 | 0.00 | 0.00 | 0.00 | 44 | 1014.8 |
| 20260901143051 | 63 | 78 | 13.0 | 17.0 | 0.00 | 0.00 | 0.00 | 46 | 1014.7 |
| 20260901141550 | 60 | 88 | 13.0 | 17.0 | 0.00 | 0.00 | 0.00 | 50 | 1014.7 |
| 20260901140051 | 60 | 111 | 11.0 | 15.0 | 0.00 | 0.00 | 0.00 | 50 | 1014.6 |
| 20260901134549 | 61 | 114 | 11.0 | 16.0 | 0.00 | 0.00 | 0.00 | 48 | 1014.6 |
| 20260901133053 | 61 | 123 | 11.0 | 14.0 | 0.00 | 0.00 | 0.00 | 48 | 1014.6 |
| 20260901131550 | 61 | 115 | 12.0 | 21.0 | 0.00 | 0.00 | 0.00 | 47 | 1014.5 |
| 20260901130047 | 62 | 105 | 12.0 | 20.0 | 0.00 | 0.00 | 0.00 | 46 | 1014.6 |
| 20260901124543 | 62 | 124 | 15.0 | 19.0 | 0.00 | 0.00 | 0.00 | 46 | 1014.6 |
| 20260901123041 | 61 | 115 | 5.0 | 14.0 | 0.00 | 0.00 | 0.00 | 47 | 1014.7 |
| 20260901121538 | 61 | 155 | 14.0 | 19.0 | 0.00 | 0.00 | 0.00 | 47 | 1014.7 |
| 20260901120036 | 61 | 101 | 7.0 | 14.0 | 0.00 | 0.00 | 0.00 | 46 | 1014.8 |
| 20260901114541 | 62 | 140 | 9.0 | 16.0 | 0.00 | 0.00 | 0.00 | 46 | 1014.9 |
| 20260901113037 | 64 | 171 | 7.0 | 19.0 | 0.00 | 0.00 | 0.00 | 43 | 1014.9 |
| 20260901111537 | 64 | 119 | 9.0 | 18.0 | 0.00 | 0.00 | 0.00 | 42 | 1015.0 |
| 20260901110036 | 63 | 113 | 15.0 | 21.0 | 0.00 | 0.00 | 0.00 | 45 | 1015.0 |
| 20260901104533 | 63 | 135 | 13.0 | 17.0 | 0.00 | 0.00 | 0.00 | 44 | 1014.9 |
| 20260901103031 | 63 | 119 | 14.0 | 18.0 | 0.00 | 0.00 | 0.00 | 45 | 1015.1 |
| 20260901101529 | 62 | 119 | 11.0 | 20.0 | 0.00 | 0.00 | 0.00 | 45 | 1015.0 |
| 20260901100028 | 63 | 124 | 16.0 | 20.0 | 0.00 | 0.00 | 0.00 | 45 | 1015.2 |
| 20260901094532 | 63 | 132 | 11.0 | 20.0 | 0.00 | 0.00 | 0.00 | 45 | 1015.3 |
| 20260901093024 | 62 | 127 | 11.0 | 18.0 | 0.00 | 0.00 | 0.00 | 46 | 1015.3 |
| 20260901091524 | 64 | 140 | 16.0 | 22.0 | 0.00 | 0.00 | 0.00 | 43 | 1015.4 |
| 20260901090023 | 64 | 150 | 13.0 | 18.0 | 0.00 | 0.00 | 0.00 | 43 | 1015.4 |
| 20260901084534 | 64 | 130 | 14.0 | 20.0 | 0.00 | 0.00 | 0.00 | 43 | 1015.5 |